DateTimeUTC,F1_A11,F1_S11,BsB_S11,BsG_S11,BsR_S11,BbsB_S11,BbsG_S11,BbsR_S11,BaB_A11,BaG_A11,BaR_A11,Tu_S11,T_S11,Uu_S11,U_S11,P_S11,T1_A11
2021-06-28T02:00:00Z,00000200,20000000,,,,,,,-000.07,0000.06,0000.13,18.6,25.6,03.4,02.2,0671.4,31.1
2021-06-28T02:01:00Z,00000200,20000000,,,,,,,-000.08,-000.55,-000.39,18.6,25.6,03.4,02.2,0671.4,31.2
2021-06-28T02:02:00Z,00000200,20000000,,,,,,,0000.22,0000.25,0000.68,18.5,25.6,03.3,02.1,0671.4,31.1
2021-06-28T02:03:00Z,00000200,60000000,,,,,,,0000.11,0000.55,0000.50,18.5,25.6,03.2,02.1,0671.4,31.2
2021-06-28T02:04:00Z,00000200,40000000,0000.33,-000.01,-000.24,0000.51,-000.46,0000.07,-000.21,-000.52,-000.76,18.8,25.5,03.3,02.2,0672.3,31.2
2021-06-28T02:05:00Z,00000200,00000000,-000.27,0000.07,0000.16,-000.25,-000.11,-000.07,0000.16,-000.13,-000.05,18.8,25.4,03.3,02.2,0672.4,31.2
2021-06-28T02:06:00Z,00000200,00000000,0000.31,0000.01,0000.02,-000.68,-000.29,-000.05,-000.35,0000.08,0000.30,18.9,25.4,03.2,02.2,0672.4,31.1
2021-06-28T02:07:00Z,00000200,00000000,0000.84,0000.52,0000.41,-000.33,-000.17,0000.59,-000.02,0000.10,-000.25,18.8,25.4,03.2,02.2,0672.4,31.2
2021-06-28T02:08:00Z,00000200,00000000,0000.18,0000.31,0000.15,-000.34,0000.14,0000.06,-000.06,-000.08,-000.18,18.8,25.4,03.2,02.2,0672.3,31.2
2021-06-28T02:09:00Z,00000200,00000000,0000.85,0000.38,0000.16,-000.39,0000.08,-000.30,-000.06,-000.34,-000.10,18.8,25.3,03.3,02.2,0672.3,31.2
2021-06-28T02:10:00Z,00000200,00000000,-000.05,-000.02,0000.21,0000.06,0000.10,-000.08,-000.16,0000.30,0000.16,18.7,25.3,03.1,02.1,0672.3,31.2
2021-06-28T02:11:00Z,00000200,00000000,0000.04,0000.71,0000.09,0000.21,-000.05,0000.07,-000.26,0000.06,-000.02,18.7,25.3,03.1,02.1,0672.3,31.1
2021-06-28T02:12:00Z,00000200,00000000,0000.42,0000.24,-000.15,0000.11,0000.14,0000.00,0000.06,-000.22,-000.31,18.7,25.3,03.1,02.1,0672.3,31.1
2021-06-28T02:13:00Z,00000200,00000000,0000.88,0000.16,-000.04,-000.15,0000.12,0000.04,0000.05,-000.34,-000.15,18.6,25.2,03.0,02.0,0672.2,31.2
2021-06-28T02:14:00Z,00000200,00000000,-000.14,0000.12,0000.22,0000.13,-000.30,0000.19,0000.03,0000.08,0000.07,18.6,25.2,03.0,02.0,0672.2,31.2
2021-06-28T02:15:00Z,00000200,00000000,-000.11,0000.37,0000.12,0000.34,0000.12,0000.08,0000.05,0000.05,0000.15,18.6,25.2,03.0,02.0,0672.2,31.1
2021-06-28T02:16:00Z,00000200,00000000,0000.36,-000.01,-000.05,0000.38,-000.16,0000.02,0000.28,0000.19,0000.22,18.5,25.2,03.1,02.0,0672.2,31.1
2021-06-28T02:17:00Z,00000200,00000000,0000.52,0000.06,0000.19,-000.36,0000.05,-000.01,-000.17,0000.03,-000.25,18.5,25.2,03.1,02.1,0672.2,31.1
2021-06-28T02:18:00Z,00000200,00000000,0000.23,0000.11,0000.22,0000.12,0000.03,0000.28,0000.26,0000.02,0000.33,18.6,25.2,03.1,02.1,0672.2,31.1
2021-06-28T02:19:00Z,00000200,00000000,0000.88,0000.14,0000.11,0000.16,-000.18,0000.31,-000.05,0000.15,-000.06,18.7,25.2,03.2,02.1,0672.2,31.1
2021-06-28T02:20:00Z,00000200,00000000,0000.48,-000.08,-000.14,0000.30,-000.05,-000.15,0000.08,0000.31,0000.21,18.8,25.3,03.2,02.1,0672.2,31.1
2021-06-28T02:21:00Z,00000200,00000000,0000.40,0000.35,0000.22,-000.12,0000.08,0000.04,-000.01,-000.10,-000.05,18.8,25.3,03.1,02.1,0672.2,31.1
2021-06-28T02:22:00Z,00000200,00000000,-000.42,0000.06,0000.09,-000.15,-000.26,-000.03,-000.22,-000.39,0000.21,18.8,25.3,03.1,02.1,0672.1,31.2
2021-06-28T02:23:00Z,00000200,00000000,0000.31,0000.06,-000.22,-000.23,-000.05,0000.16,-000.07,-000.02,-000.73,18.8,25.2,03.1,02.1,0672.1,31.1
2021-06-28T02:24:00Z,00000200,00000000,0000.28,0000.24,0000.13,0000.28,-000.18,0000.03,-000.19,-000.09,0000.11,18.7,25.3,03.0,02.0,0672.1,31.1
2021-06-28T02:25:00Z,00000200,00000000,0000.40,0000.50,0000.44,-000.01,-000.18,0000.01,-000.05,-000.19,0000.20,18.7,25.2,02.9,02.0,0672.2,31.1
2021-06-28T02:26:00Z,00000200,00000000,0000.08,0000.07,0000.05,0000.05,-000.25,0000.28,-000.32,-000.32,-000.11,18.6,25.2,02.9,01.9,0672.2,31.1
2021-06-28T02:27:00Z,00000200,00000000,-000.58,-000.19,-000.06,-000.37,-000.18,-000.17,-000.19,-000.23,-000.35,18.6,25.2,02.9,01.9,0672.2,31.1
2021-06-28T02:28:00Z,00000200,00000000,0000.09,0000.41,-000.16,-000.06,-000.04,0000.23,0000.09,0000.10,-000.09,18.6,25.1,02.8,01.9,0672.2,31.1
2021-06-28T02:29:00Z,00000200,00000000,0000.28,0000.03,0000.09,-000.14,-000.01,0000.17,0000.33,0000.27,0000.17,18.5,25.1,02.7,01.8,0672.1,31.1
2021-06-28T02:30:00Z,00000200,00000000,0000.23,0000.19,0000.06,-000.32,-000.16,-000.04,-000.20,-000.13,-000.52,18.5,25.1,02.7,01.8,0672.1,31.1
2021-06-28T02:31:00Z,00000200,00000000,0000.33,0000.03,0000.06,0000.04,-000.20,0000.09,-000.15,-000.11,0000.67,18.5,25.1,02.7,01.8,0672.1,31.1
2021-06-28T02:32:00Z,00000200,00000000,-000.60,0000.20,0000.07,0000.10,-000.13,0000.22,0000.42,0000.64,0000.33,18.5,25.1,02.8,01.9,0672.1,31.1
2021-06-28T02:33:00Z,00000200,00000000,-000.40,-000.23,-000.04,0000.56,-000.29,0000.04,-000.18,-000.19,-000.46,18.5,25.1,02.7,01.8,0672.1,31.1
2021-06-28T02:34:00Z,00000200,00000000,-000.35,0000.05,0000.04,0000.61,0000.03,0000.32,0000.15,0000.10,0000.31,18.6,25.1,02.7,01.8,0672.1,31.1
2021-06-28T02:35:00Z,00000200,00000000,0000.26,0000.31,-000.08,-000.40,-000.11,0000.03,0000.08,0000.18,0000.06,18.7,25.2,02.7,01.8,0672.1,31.1
2021-06-28T02:36:00Z,00000200,00000000,0000.04,0000.23,-000.11,0000.37,-000.23,0000.02,-000.06,-000.01,-000.09,18.8,25.2,02.6,01.7,0672.1,31.1
2021-06-28T02:37:00Z,00000200,00000000,-000.05,0000.25,0000.12,0000.07,0000.28,0000.25,0000.04,-000.14,0000.02,18.8,25.3,02.6,01.8,0672.2,31.2
2021-06-28T02:38:00Z,00000200,00000000,-000.95,0000.12,0000.22,0000.49,-000.22,0000.03,-000.24,-000.21,-000.22,18.9,25.3,02.6,01.8,0672.2,31.2
2021-06-28T02:39:00Z,00000200,00000000,-000.17,0000.04,0000.07,-000.46,-000.17,-000.03,-000.27,-000.08,0000.14,18.8,25.2,02.6,01.8,0672.2,31.1
2021-06-28T02:40:00Z,00000200,00000000,0000.47,0000.38,0000.08,-000.20,-000.19,0000.03,0000.06,-000.13,-000.37,18.8,25.2,02.6,01.8,0672.2,31.2
2021-06-28T02:41:00Z,00000200,00000000,0000.17,0000.30,-000.03,0000.32,-000.20,-000.16,0000.18,0000.11,0000.15,18.7,25.2,02.6,01.7,0672.1,31.1
2021-06-28T02:42:00Z,00000200,00000000,-000.03,0000.32,-000.35,0000.06,-000.02,0000.08,-000.37,0000.11,-000.00,18.7,25.2,02.7,01.8,0672.1,31.1
2021-06-28T02:43:00Z,00000200,00000000,0000.12,0000.09,0000.36,-000.03,0000.19,0000.06,0000.04,-000.19,-000.10,18.7,25.2,02.6,01.7,0672.1,31.1
2021-06-28T02:44:00Z,00000200,00000000,0000.34,0000.20,0000.09,-000.32,0000.08,0000.30,0000.07,-000.47,-000.49,18.6,25.1,02.5,01.7,0672.1,31.1
2021-06-28T02:45:00Z,00000200,00000000,0000.43,0000.21,-000.03,0000.14,-000.32,-000.28,-000.21,-000.06,0000.31,18.5,25.1,02.4,01.6,0672.1,31.1
2021-06-28T02:46:00Z,00000200,00000000,0000.73,-000.02,0000.30,-000.17,0000.12,0000.02,0000.01,0000.32,0000.44,18.5,25.1,02.3,01.6,0672.0,31.1
2021-06-28T02:47:00Z,00000200,00000000,0000.26,0000.39,0000.23,-000.28,-000.04,0000.38,0000.13,-000.20,-000.41,18.5,25.1,02.4,01.6,0672.1,31.1
2021-06-28T02:48:00Z,00000200,00000000,0000.55,0000.12,-000.03,0000.07,0000.02,-000.31,0000.04,0000.47,0000.13,18.6,25.1,02.3,01.6,0672.1,31.1
2021-06-28T02:49:00Z,00000200,00000000,0000.33,-000.11,0000.34,0000.13,0000.16,-000.04,-000.02,-000.09,0000.12,18.7,25.1,02.3,01.5,0672.1,31.1
2021-06-28T02:50:00Z,00000200,00000000,0000.12,0000.20,0000.12,-000.23,0000.08,0000.29,0000.07,-000.04,-000.13,18.8,25.2,02.4,01.6,0672.1,31.1
2021-06-28T02:51:00Z,00000200,00000000,-000.11,0000.09,-000.16,-000.49,0000.03,0000.25,0000.11,0000.35,0000.40,18.9,25.2,02.4,01.6,0672.1,31.2
2021-06-28T02:52:00Z,00000200,00000000,0000.10,0000.35,-000.10,0000.52,-000.19,0000.15,0000.60,0000.28,0000.28,18.9,25.3,02.5,01.7,0672.1,31.2
2021-06-28T02:53:00Z,00000200,00000000,-000.10,0000.13,0000.12,-000.22,-000.16,0000.04,-000.27,-000.37,-000.27,19.0,25.3,02.4,01.7,0672.2,31.2
2021-06-28T02:54:00Z,00000200,00000000,-000.29,0000.19,-000.04,-000.19,-000.00,-000.05,0000.04,0000.28,-000.32,19.0,25.3,02.4,01.6,0672.2,31.2
2021-06-28T02:55:00Z,00000200,00000000,0000.15,0000.41,-000.25,-000.05,-000.04,0000.04,-000.20,-000.23,0000.02,18.9,25.3,02.5,01.7,0672.2,31.2
2021-06-28T02:56:00Z,00000200,00000000,-000.01,0000.21,-000.09,-000.71,-000.12,0000.18,-000.02,-000.03,0000.22,18.9,25.3,02.6,01.8,0672.2,31.1
2021-06-28T02:57:00Z,00000200,40000000,,,,,,,0000.17,0000.11,-000.02,18.9,25.3,02.5,01.7,0672.2,31.1
2021-06-28T02:58:00Z,00000200,60000000,,,,,,,-000.18,-000.21,-000.19,18.5,25.4,02.7,01.8,0671.1,31.1
2021-06-28T02:59:00Z,00000200,20000000,,,,,,,-000.02,0000.15,-000.10,18.5,25.5,02.6,01.7,0671.1,31.1
